Location: Croisette
(50.3548°N, 2.2604°E)
Time: 01:20:59
(UTC+00:00)

Daily predictions for brighter satellites

Satellite Brightness Start Highest point End
(mag) Time Altitude Azimuth Time Altitude Azimuth Time Altitude Azimuth
NOSS 3-1 (C) 4.5 03:34:05 49° NE 03:34:05 49° NE 03:41:55 10° ESE
ACS3 Solar Sail 4.1 03:40:07 10° N 03:40:27 12° N 03:40:27 12° N
SL-16 R/B 3.9 03:46:48 25° NNE 03:47:24 26° NE 03:52:05 10° E
Cosmos 2082 Rocket 3.8 03:49:32 24° SE 03:51:29 30° ESE 03:56:18 10° NE
COSMOS 2455 3.4 03:58:09 54° E 03:58:09 54° E 04:03:13 10° SE
ATLAS 3B R/B 4.1 03:59:03 30° N 03:59:33 30° N 04:06:20 10° ENE
NOSS 3-4 (A) 4.4 04:02:31 36° NNE 04:02:31 36° NNE 04:06:11 10° NE
NOSS 3-4 (C) 4.4 04:02:40 36° NNE 04:02:40 36° NNE 04:06:21 10° NE
Cosmos 1980 Rocket 3.6 04:14:14 28° SSE 04:14:14 28° SSE 04:16:45 10° SSE
Cosmos 2369 4.0 04:16:15 65° ESE 04:16:15 65° ESE 04:21:18 10° SE
Aureole 1 Rocket 4.2 04:20:45 59° NNW 04:22:18 86° ENE 04:29:48 10° SSE
COSMO-SKYMED 1 4.2 04:18:47 10° SE 04:22:20 29° ENE 04:22:49 28° NE
ADEOS Rocket 4.4 04:16:00 10° N 04:20:30 33° NNW 04:20:30 33° NNW
Cosmos 2180 Rocket 4.4 04:23:52 50° N 04:25:39 83° E 04:31:59 10° S
Cosmos 1937 Rocket 4.1 04:25:55 49° NE 04:26:28 51° ENE 04:31:27 10° SE
Cosmos 909 Rocket 4.4 04:28:18 56° NNW 04:28:18 56° NNW 04:34:27 10° NE
Cosmos 372 Rocket 4.3 04:33:38 55° SSE 04:33:38 55° SSE 04:37:35 10° SSE
Cosmos 2333 Rocket 3.4 04:33:56 26° N 04:36:35 39° NE 04:41:56 10° ESE
NOSS 3-1 (A) 4.3 04:37:46 36° NNW 04:40:35 56° NE 04:48:50 10° ESE
Cosmos 1606 Rocket 3.9 04:43:12 63° ESE 04:43:12 63° ESE 04:47:11 10° SSE
Cosmos 2360 Rocket 3.7 04:40:11 19° N 04:43:14 31° NE 04:48:13 10° ESE
Cosmos 2142 Rocket 4.4 04:47:06 58° NW 04:48:06 67° W 04:54:15 10° S
Cosmos 540 Rocket 4.3 04:56:48 35° N 04:56:48 35° N 05:00:05 10° NNE
USA 234 3.7 04:49:38 10° ENE 04:55:54 50° N 04:57:47 40° NW
Helios 1A Rocket 3.6 04:53:13 10° SSE 04:55:47 41° ESE 04:55:47 41° ESE
SeaSat 1 4.0 04:56:11 10° NNE 04:58:20 22° N 04:58:20 22° N
Cosmos 2219 Rocket 3.8 04:58:08 14° N 05:02:02 28° NE 05:06:53 10° ESE
SL-4 R/B 2.8 05:03:15 37° ENE 05:03:15 37° ENE 05:05:22 10° E
ATLAS 5 CENTAUR R/B 3.4 05:05:55 14° NNE 05:05:55 14° NNE 05:06:36 10° NNE
Cosmos 2322 Rocket 3.1 05:01:43 20° NNW 05:05:26 46° NE 05:10:54 10° SE
Cosmos 1726 Rocket 3.4 05:08:06 49° N 05:09:15 90° WSW 05:13:30 10° S
Meteor 2-3 Rocket 4.0 05:05:42 10° S 05:11:23 68° E 05:17:02 10° NNE
CZ-4 R/B 3.7 05:10:19 10° NNE 05:15:00 84° ESE 05:19:37 10° SSW
Nadezhda 4 Rocket 3.9 05:10:06 10° SSW 05:16:25 76° W 05:22:43 10° N
NOSS 2-1 (D) 4.1 05:17:47 37° SSW 05:17:47 37° SSW 05:21:27 10° SSE
Cosmos 1428 Rocket 4.4 05:11:16 10° S 05:17:31 86° W 05:23:51 10° N
Cosmos 2237 4.2 05:15:45 42° NW 05:17:31 61° WSW 05:23:06 10° SSE
CZ-2C R/B 4.1 05:14:26 10° N 05:16:11 19° NNW 05:16:11 19° NNW
USA 59 Rocket 0.8 05:20:26 33° SSW 05:20:26 33° SSW 05:24:05 10° SSE
Cosmos 841 Rocket 3.4 05:18:05 10° SSW 05:23:19 84° WNW 05:28:38 10° NNE
COSMOS 2406 3.3 05:18:12 10° SSW 05:23:51 78° ESE 05:29:32 10° NNE
NOSS 2-1 (E) 3.8 05:25:12 42° SW 05:25:12 42° SW 05:29:20 10° SSE
NOSS 3-1 (C) 4.0 05:21:26 31° WNW 05:25:08 63° SW 05:33:46 10° SSE
Cosmos 1833 Rocket 4.0 05:28:01 21° NNW 05:28:01 21° NNW 05:31:41 10° NNE
Cosmos 1892 Rocket 3.5 05:25:57 10° S 05:30:18 88° ESE 05:34:45 10° N
Cosmos 2195 Rocket 4.4 05:24:34 10° S 05:30:51 85° WNW 05:37:13 10° N
SL-16 R/B 2.1 05:28:40 25° NNW 05:32:09 79° WSW 05:37:48 10° SSE
Cosmos 2082 Rocket 2.2 05:31:29 20° SW 05:35:17 54° NW 05:40:48 10° NNE
IRS-1D 3.5 05:37:16 10° N 05:42:07 53° WNW 05:47:01 10° SW
COSMOS 2455 3.6 05:41:19 28° W 05:42:53 32° WSW 05:48:07 10° S
Cosmos 1898 Rocket 4.2 05:42:42 30° W 05:43:31 31° WSW 05:48:07 10° SSW
Meteor 2-20 4.4 05:38:56 10° NNW 05:45:00 67° W 05:51:01 10° S
NOSS 2-1 (C) 4.5 05:44:49 26° WSW 05:45:02 26° SW 05:48:49 10° S
Orbus 7S? 2.7 05:47:32 45° NNW 05:48:07 61° NNE 05:50:47 10° ESE
Cosmos 405 Rocket 4.2 05:46:02 10° SSE 05:49:00 33° E 05:51:59 10° NNE
NOSS 3-4 (A) 4.4 05:49:57 22° NW 05:52:11 28° NNW 05:57:36 10° NE
NOSS 3-4 (C) 4.4 05:50:06 22° NW 05:52:19 28° NNW 05:57:45 10° NE
ATLAS 3B R/B 3.8 05:46:18 15° NW 05:52:25 42° NNE 05:59:37 10° E
Cosmos-2242 2.8 05:49:30 11° NNW 05:53:38 70° W 05:57:47 10° S
Cosmos 1980 Rocket 4.1 05:56:02 12° WSW 05:56:02 12° WSW 05:56:53 10° SW
Cosmos 2278 3.7 05:51:02 18° NW 05:55:14 62° WSW 06:00:46 10° SSE
COSMO-SKYMED 1 3.1 05:53:51 10° SSW 05:57:34 33° W 05:59:09 25° NW
Cosmos 2058 Rocket 3.1 05:56:23 10° NNW 06:00:46 55° W 06:05:04 10° S
Cosmos 1484 Rocket 2.3 05:57:23 10° N 06:00:50 73° WNW 06:04:11 10° SSW
Cosmos 1627 Rocket 4.4 05:57:21 10° SSW 06:03:24 63° WNW 06:09:31 10° N
Meteor 2-2 Rocket 4.3 05:58:24 10° NNW 06:04:00 61° W 06:09:40 10° S
Cosmos 1346 Rocket 4.3 06:07:59 16° NNW 06:07:59 16° NNW 06:09:16 10° NNW
Okean 1 3.1 06:03:39 14° NNW 06:06:32 54° W 06:10:00 10° S
Meteor 2-20 Rocket 4.3 06:01:29 10° NNW 06:07:12 62° W 06:12:49 10° S
Cosmos 1937 Rocket 4.4 06:06:02 20° WNW 06:08:02 26° W 06:12:14 10° SSW
Cosmos 220 Rocket 4.4 06:05:10 10° SW 06:08:55 35° WNW 06:12:44 10° N
SL-16 R/B 4.5 06:08:58 10° N 06:10:35 11° NNE 06:12:12 10° NE
ARIANE 5 R/B 3.7 06:07:49 10° NNE 06:12:52 48° E 06:17:54 10° S
Cosmos 2285 Rocket 4.0 06:06:49 10° NNW 06:13:14 83° WSW 06:19:38 10° SSE
ATLAS 2AS CENTAUR R/B 4.5 06:09:07 10° S 06:15:24 36° ESE 06:21:33 10° NE
SL-08 ROCKET BODY 4.5 06:10:58 10° S 06:16:49 82° E 06:22:41 10° N
SL-08 R/B 4.5 06:14:13 10° SE 06:18:32 41° ENE 06:22:56 10° N
IRIDIUM 104 4.3 06:13:27 10° S 06:18:40 81° W 06:23:56 10° N
Cosmos 2333 Rocket 2.6 06:15:59 12° NW 06:21:00 47° WSW 06:26:27 10° S
SAR-Lupe-4 4.4 06:19:40 10° NNE 06:23:12 55° ESE 06:26:41 10° S
SMAP 3.2 06:19:28 10° NNE 06:24:10 81° ESE 06:28:50 10° SSW
Cosmos 2360 Rocket 2.3 06:22:02 10° NW 06:27:34 59° WSW 06:33:04 10° S
IRIDIUM 114 4.3 06:22:38 10° SSW 06:27:49 68° W 06:33:03 10° N
Helios 1A Rocket 4.3 06:27:41 10° WSW 06:29:20 13° W 06:29:20 13° W
Landsat 7 4.0 06:25:26 10° NNE 06:30:07 76° ESE 06:34:46 10° S
NOSS 3-1 (A) 4.3 06:25:10 12° NW 06:31:41 54° SW 06:40:12 10° SSE
CBERS-1 4.0 06:27:47 10° N 06:32:49 61° WNW 06:37:49 10° SSW
Cosmos 2026 Rocket 4.4 06:27:28 10° SW 06:33:04 38° WNW 06:38:44 10° N
IGS 5A 3.7 06:29:53 10° N 06:33:40 42° WNW 06:37:27 10° SW
Cosmos 1814 Rocket 4.0 06:29:17 10° SSW 06:34:31 82° WNW 06:39:52 10° NNE
BREEZE-M DEB (TANK) 3.2 06:34:37 12° WSW 06:35:59 25° SSW 06:38:10 10° SE
Cosmos 2237 Rocket 3.9 06:31:35 10° NNW 06:36:12 25° NE 06:40:49 10° E
IRIDIUM 103 4.4 06:31:53 10° SSW 06:37:01 57° W 06:42:12 10° N
USA 234 3.5 06:31:59 10° E 06:38:29 66° NNE 06:44:59 10° WNW
SL-4 R/B 1.6 06:36:58 13° WNW 06:39:46 62° SSW 06:42:54 10° ESE
Cosmos 1758 Rocket 3.6 06:36:30 10° SSW 06:40:53 63° WNW 06:45:16 10° N
Cosmos 1733 2.2 06:40:01 10° SW 06:41:41 27° WNW 06:43:22 10° NNW
Cosmos 1743 2.2 06:38:42 10° SSW 06:41:56 73° WNW 06:45:12 10° N
IRS-1C 4.4 06:36:44 10° NNE 06:42:06 77° ESE 06:47:25 10° SSW
Thor Agena Rocket 3.5 06:40:17 10° NNE 06:45:20 67° WNW 06:50:19 10° SSW
BREEZE-M DEB (TANK) 3.3 06:43:01 10° W 06:45:51 79° S 06:53:52 10° E
Cosmos 2219 Rocket 2.3 06:40:49 10° NNW 06:46:28 69° WSW 06:52:03 10° SSE
Cosmos 192 4.3 06:41:52 10° NNW 06:46:48 77° WSW 06:51:41 10° SSE
ATLAS 5 CENTAUR R/B 3.2 06:46:06 10° NNW 06:47:24 12° N 06:48:45 10° NNE
Cosmos 2322 Rocket 2.9 06:44:11 10° NW 06:49:24 37° WSW 06:54:33 10° S
S3M 4.0 06:43:53 10° N 06:50:08 84° W 06:56:16 10° S
Cosmos 1553 Rocket 4.5 06:46:41 10° NNW 06:52:38 43° W 06:58:35 10° SSW
USA 229 4.3 06:47:53 10° NW 06:55:08 67° NE 07:03:09 10° SE
USA 229 DEB 4.3 06:47:59 10° NW 06:55:13 68° NE 07:03:14 10° SE
Cosmos 2322 4.1 06:49:38 10° NNW 06:55:18 66° ENE 07:00:56 10° SE
SJ-12 3.7 06:53:44 10° N 06:57:30 61° WNW 07:01:16 10° SSW
SKYMED 3 4.3 06:54:58 10° SSE 06:58:59 81° WSW 07:03:00 10° NNW
Resurs 01 Rocket 4.3 06:55:55 10° NE 06:59:20 22° E 07:02:43 10° SE
YAOGAN 1 3.8 06:56:19 10° NNE 07:00:27 46° E 07:04:33 10° S
